Home > Weather > Compton > Past weeks

Flag for USA Past Weather in Compton, California, USA — Yesterday and Last 2 Weeks

Now
68 °F

Passing clouds.


Feels Like: 68 °F
Forecast: 60 / 72 °F
Wind: 5 mph from Northwest

Location: Hawthorne Municipal Airport

Current Time: May 27, 2016 at 1:10:10 PM

Latest Report: May 27, 2016 at 11:53 AM


Visibility: 10 mi

Pressure: 29.92 "Hg

Humidity: 63%

Dew Point: 55 °F

Location of ComptonLocation

Past Weather in Compton — Graph

°F

Compton Temperature Yesterday

Maximum temperature yesterday: 70 °F (at 12:53 PM)
Minimum temperature yesterday: 58 °F (at 3:53 AM)
Average temperature yesterday: 63 °F

High & Low Weather Summary for the Past Weeks

 TemperatureHumidityPressure
High71 °F (May 13, 12:53 PM)86% (May 12, 10:53 PM)30.10 "Hg (May 12, 10:53 PM)
Low56 °F (May 22, 5:53 AM)41% (May 23, 2:53 PM)29.83 "Hg (May 19, 6:53 PM)
Average63 °F70%29.96 "Hg
* Reported May 12 11:53 AM — May 27 11:53 AM, Compton, Weather by CustomWeather, © 2016

Note: Actual official high and low records may vary slightly from our data, if they occured in-between our weather recording intervals... More about our weather records

Advertising

Compton Weather History for the Previous 24 Hours

Scroll right to see more
 ConditionsComfort  
Time TempWeatherWind HumidityBarometerVisibility
11:53 AM
Fri, May 27
68 °FPassing clouds.5 mph63%29.92 "Hg10 mi
10:53 AM65 °FOvercast.5 mph68%29.93 "Hg10 mi
9:53 AM64 °FOvercast.5 mph70%29.94 "Hg10 mi
8:53 AM63 °FOvercast.No wind73%29.96 "Hg10 mi
7:53 AM62 °FOvercast.6 mph73%29.95 "Hg10 mi
6:55 AM61 °FPartly sunny.5 mph77%29.95 "Hg10 mi
5:53 AM59 °FPassing clouds.No wind81%29.95 "Hg10 mi
4:53 AM59 °FClear.No wind81%29.94 "Hg10 mi
3:53 AM59 °FClear.No wind84%29.94 "Hg10 mi
2:53 AM60 °FClear.No wind80%29.96 "Hg10 mi
1:53 AM60 °FClear.No wind80%29.97 "Hg10 mi
1:00 AM60 °FPassing clouds.No wind80%29.99 "Hg10 mi
11:53 PM
Thu, May 26
60 °FClear.6 mph83%29.98 "Hg10 mi
10:53 PM61 °FClear.3 mph81%29.98 "Hg10 mi
9:53 PM61 °FClear.5 mph78%29.98 "Hg10 mi
8:53 PM63 °FSunny.5 mph68%29.97 "Hg10 mi
7:53 PM63 °FSunny.6 mph65%29.97 "Hg10 mi
6:53 PM64 °FSunny.10 mph68%29.97 "Hg10 mi
5:53 PM65 °FSunny.13 mph66%29.97 "Hg10 mi
4:53 PM67 °FSunny.13 mph63%29.98 "Hg10 mi
3:53 PM68 °FPassing clouds.16 mph61%30.00 "Hg10 mi
2:53 PM69 °FSunny.14 mph53%30.01 "Hg10 mi
1:53 PM68 °FSunny.12 mph55%30.03 "Hg10 mi
Weather by CustomWeather, © 2016

See weather overviewHow to use our weather pages